Regional Weather Roundup
Issued by NWS

Home | Current Version | Previous Version | Text Only | Print | Product List | Glossary On
Versions: 1 2 3 4 5 6 7 8 9 10 11 12 13 14 15 16 17 18 19 20 21 22 23 24 25 26 27 28
000
ASUS46 KPQR 290510
RWROR

OREGON REGIONAL WEATHER ROUNDUP
NATIONAL WEATHER SERVICE PORTLAND OR
1000 PM PDT WED SEP 28 2016

NOTE: "FAIR" INDICATES FEW OR NO CLOUDS BELOW 12,000 FEET WITH
NO SIGNIFICANT WEATHER AND/OR OBSTRUCTIONS TO VISIBILITY.

ORZ001>013-290600-
NORTHWEST OREGON


CITY           SKY/WX    TMP DP  RH WIND       PRES   REMARKS
ASTORIA        FAIR      57  51  80 NW15      30.05R
NEWPORT        FAIR      46  46 100 CALM      30.06R FOG
PORTLAND       FAIR      63  45  51 NW7       29.99R
VANCOUVER WA   FAIR      63  45  51 NW6       29.98S
SCAPPOOSE      FAIR      62  45  53 N7        29.98S
HILLSBORO      FAIR      59  32  36 NW8       29.99S
AURORA         FAIR      60  48  64 N7        30.00R
MCMINNVILLE    FAIR      56  45  66 W3        30.00R
SALEM          FAIR      62  48  60 NW5       29.99R
CORVALLIS        N/A     57  48  72 NW9       30.00S
EUGENE         FAIR      58  45  62 N5        29.98R
$$

ORZ021-028-290600-
SOUTHWEST OREGON


CITY           SKY/WX    TMP DP  RH WIND       PRES   REMARKS
NORTH BEND       N/A     55  54  94 N12G18    30.03S
BROOKINGS      LGT RAIN  52  51  97 SE5       29.99R FOG
ROSEBURG       FAIR      65  41  41 CALM      29.96R
SEXTON SUMMIT  FAIR      55  39  54 N12       30.02S
MEDFORD        FAIR      69  51  52 NE7       29.92R
$$

ORZ014>016-041-290600-
COLUMBIA GORGE


CITY           SKY/WX    TMP DP  RH WIND       PRES   REMARKS
TROUTDALE      FAIR      59  48  67 CALM      29.99R
HOOD RIVER     FAIR      59  52  77 CALM      29.96R
THE DALLES     FAIR      68  51  54 NW16G23   29.92R
$$

ORZ029>031-041-044-049-050-061>064-502-503-505>511-290600-
EASTERN OREGON


CITY           SKY/WX    TMP DP  RH WIND       PRES   REMARKS
REDMOND        FAIR      62  37  39 NE3       29.99R
BEND           FAIR      61  41  48 W7        30.01S
PRINEVILLE     FAIR      61  39  44 CALM      30.00R
KLAMATH FALLS  FAIR      55  46  71 S3        30.01R
LAKEVIEW       FAIR      54  23  30 S5        30.07R
HERMISTON      FAIR      60  43  53 CALM      29.91R
PENDLETON      FAIR      62  42  47 SE7       29.94S
JOHN DAY       FAIR      66  43  43 W8        30.00R
MEACHAM        FAIR      47  37  68 CALM      30.03F
LA GRANDE      FAIR      61  36  39 SW3       29.96S
BAKER CITY     FAIR      50  38  63 SE3       29.98R
BURNS          FAIR      55  32  41 CALM      29.99R
ROME             N/A     68  24  19 SE5       29.96R
ONTARIO        FAIR      61  45  55 CALM      29.91R
$$




USA.gov is the U.S. government's official web portal to all federal, state and local government web resources and services.